Time,TemperatureF,DewpointF,PressureIn,WindDirection,WindDirectionDegrees,WindSpeedMPH,WindSpeedGustMPH,Humidity,HourlyPrecipIn,Conditions,Clouds,dailyrainin,SoftwareType,DateUTC
2013-10-17 00:00:00,67.5,64.5,29.94,NNW,336,3.0,4.0,90,0.00,,---,0.00,VWS V14.01,2013-10-17 04:00:00,
2013-10-17 00:01:00,67.5,64.5,29.94,NNW,336,2.0,4.0,90,0.00,,---,0.00,VWS V14.01,2013-10-17 04:01:00,
2013-10-17 00:02:00,67.5,64.5,29.94,NNW,336,3.0,4.0,90,0.00,,---,0.00,VWS V14.01,2013-10-17 04:02:00,
2013-10-17 00:03:00,67.4,64.4,29.94,NNW,336,2.0,4.0,90,0.00,,---,0.00,VWS V14.01,2013-10-17 04:03:00,
2013-10-17 00:08:00,67.3,64.3,29.94,NNW,336,4.0,5.0,90,0.00,,---,0.00,VWS V14.01,2013-10-17 04:08:00,
2013-10-17 00:13:00,67.0,64.3,29.94,NNW,336,4.0,5.0,91,0.00,,---,0.00,VWS V14.01,2013-10-17 04:13:00,
2013-10-17 00:18:00,66.7,64.0,29.94,NNW,332,5.0,5.0,91,0.00,,---,0.00,VWS V14.01,2013-10-17 04:18:00,
2013-10-17 00:23:00,66.6,64.2,29.95,NW,317,5.0,6.0,92,0.00,,---,0.00,VWS V14.01,2013-10-17 04:23:00,
2013-10-17 00:28:00,66.4,64.0,29.95,WNW,301,5.0,6.0,92,0.00,,---,0.00,VWS V14.01,2013-10-17 04:28:00,
2013-10-17 00:33:00,66.5,64.4,29.95,WNW,296,5.0,7.0,93,0.00,,---,0.00,VWS V14.01,2013-10-17 04:33:00,
2013-10-17 00:38:00,66.3,64.2,29.95,WNW,300,4.0,7.0,93,0.00,,---,0.00,VWS V14.01,2013-10-17 04:38:00,
2013-10-17 00:43:00,66.1,64.0,29.96,NW,308,3.0,7.0,93,0.00,,---,0.00,VWS V14.01,2013-10-17 04:43:00,
2013-10-17 00:49:00,66.0,63.9,29.95,NW,319,6.0,7.0,93,0.00,,---,0.00,VWS V14.01,2013-10-17 04:49:00,
2013-10-17 00:54:00,65.9,63.8,29.96,NNW,330,7.0,8.0,93,0.00,,---,0.00,VWS V14.01,2013-10-17 04:54:00,
2013-10-17 00:59:00,65.7,63.6,29.95,North,355,7.0,10.0,93,0.00,,---,0.00,VWS V14.01,2013-10-17 04:59:00,
2013-10-17 01:04:00,65.5,63.4,29.95,NNW,335,6.0,10.0,93,0.00,,---,0.00,VWS V14.01,2013-10-17 05:04:00,
2013-10-17 01:09:00,65.4,63.3,29.96,NW,323,6.0,10.0,93,0.00,,---,0.00,VWS V14.01,2013-10-17 05:09:00,
2013-10-17 01:14:00,65.3,63.2,29.95,NW,322,6.0,10.0,93,0.00,,---,0.00,VWS V14.01,2013-10-17 05:14:00,
2013-10-17 01:19:00,65.3,63.5,29.95,NNW,329,5.0,10.0,94,0.00,,---,0.00,VWS V14.01,2013-10-17 05:19:00,
2013-10-17 01:24:00,65.3,63.5,29.95,NNW,340,4.0,10.0,94,0.00,,---,0.00,VWS V14.01,2013-10-17 05:24:00,
2013-10-17 01:29:00,65.2,63.4,29.95,NNW,341,5.0,5.0,94,0.00,,---,0.00,VWS V14.01,2013-10-17 05:29:00,
2013-10-17 01:34:00,65.2,63.7,29.95,NNW,331,5.0,6.0,95,0.00,,---,0.00,VWS V14.01,2013-10-17 05:34:00,
2013-10-17 01:39:00,65.1,63.6,29.95,NNW,333,4.0,6.0,95,0.00,,---,0.00,VWS V14.01,2013-10-17 05:39:00,
2013-10-17 01:44:00,65.0,63.5,29.95,NW,326,4.0,6.0,95,0.00,,---,0.00,VWS V14.01,2013-10-17 05:44:00,
2013-10-17 01:49:00,65.0,63.5,29.95,NNW,333,2.0,6.0,95,0.00,,---,0.00,VWS V14.01,2013-10-17 05:49:00,
2013-10-17 01:54:00,65.0,63.5,29.95,NNW,333,5.0,6.0,95,0.00,,---,0.00,VWS V14.01,2013-10-17 05:54:00,
2013-10-17 01:59:00,65.0,63.8,29.95,NNW,336,1.0,6.0,96,0.00,,---,0.00,VWS V14.01,2013-10-17 05:59:00,
2013-10-17 02:04:00,65.0,63.5,29.95,NNW,336,1.0,6.0,95,0.00,,---,0.00,VWS V14.01,2013-10-17 06:04:00,
2013-10-17 02:10:00,65.1,63.6,29.95,NNW,338,0.0,6.0,95,0.00,,---,0.00,VWS V14.01,2013-10-17 06:10:00,
2013-10-17 02:15:00,65.2,63.7,29.95,NNW,338,3.0,6.0,95,0.00,,---,0.00,VWS V14.01,2013-10-17 06:15:00,
2013-10-17 02:20:00,65.3,63.8,29.95,NNW,345,5.0,6.0,95,0.00,,---,0.00,VWS V14.01,2013-10-17 06:20:00,
2013-10-17 02:25:00,65.2,63.7,29.95,NNW,340,3.0,6.0,95,0.00,,---,0.00,VWS V14.01,2013-10-17 06:25:00,
2013-10-17 02:30:00,65.0,63.5,29.94,NNW,340,3.0,3.0,95,0.00,,---,0.00,VWS V14.01,2013-10-17 06:30:00,
2013-10-17 02:35:00,65.0,63.5,29.93,North,355,3.0,5.0,95,0.00,,---,0.00,VWS V14.01,2013-10-17 06:35:00,
2013-10-17 02:40:00,64.9,63.4,29.94,NNE,13,4.0,5.0,95,0.00,,---,0.00,VWS V14.01,2013-10-17 06:40:00,
2013-10-17 02:45:00,64.8,63.3,29.94,North,9,3.0,5.0,95,0.00,,---,0.00,VWS V14.01,2013-10-17 06:45:00,
2013-10-17 02:50:00,64.7,63.2,29.94,NNW,346,3.0,5.0,95,0.00,,---,0.00,VWS V14.01,2013-10-17 06:50:00,
2013-10-17 02:55:00,64.7,63.2,29.94,NNW,337,4.0,6.0,95,0.00,,---,0.00,VWS V14.01,2013-10-17 06:55:00,
2013-10-17 03:00:00,64.5,63.3,29.93,NNW,341,6.0,8.0,96,0.00,,---,0.00,VWS V14.01,2013-10-17 07:00:00,
2013-10-17 03:05:00,64.4,63.2,29.93,NNW,346,6.0,9.0,96,0.00,,---,0.00,VWS V14.01,2013-10-17 07:05:00,
2013-10-17 03:10:00,64.3,63.1,29.93,NNW,339,5.0,9.0,96,0.00,,---,0.00,VWS V14.01,2013-10-17 07:10:00,
2013-10-17 03:15:00,64.2,63.0,29.93,NNW,335,4.0,9.0,96,0.00,,---,0.00,VWS V14.01,2013-10-17 07:15:00,
2013-10-17 03:20:00,64.2,63.0,29.92,NNW,332,3.0,9.0,96,0.00,,---,0.00,VWS V14.01,2013-10-17 07:20:00,
2013-10-17 03:26:00,64.2,63.0,29.92,NNW,347,3.0,9.0,96,0.00,,---,0.00,VWS V14.01,2013-10-17 07:26:00,
2013-10-17 03:31:00,64.2,63.0,29.92,NNW,347,3.0,5.0,96,0.00,,---,0.00,VWS V14.01,2013-10-17 07:31:00,
2013-10-17 03:36:00,64.3,63.1,29.92,NNW,347,1.0,5.0,96,0.00,,---,0.00,VWS V14.01,2013-10-17 07:36:00,
2013-10-17 03:41:00,64.3,63.1,29.92,NNW,347,2.0,5.0,96,0.00,,---,0.00,VWS V14.01,2013-10-17 07:41:00,
2013-10-17 03:46:00,64.3,63.1,29.92,NNW,347,3.0,5.0,96,0.00,,---,0.00,VWS V14.01,2013-10-17 07:46:00,
2013-10-17 03:51:00,64.1,62.9,29.92,NNW,347,0.0,5.0,96,0.00,,---,0.00,VWS V14.01,2013-10-17 07:51:00,
2013-10-17 03:56:00,64.1,62.9,29.92,NNW,348,2.0,5.0,96,0.00,,---,0.00,VWS V14.01,2013-10-17 07:56:00,
2013-10-17 04:01:00,64.1,62.9,29.92,North,351,2.0,4.0,96,0.00,,---,0.00,VWS V14.01,2013-10-17 08:01:00,
2013-10-17 04:06:00,63.9,62.7,29.92,NNW,334,3.0,6.0,96,0.00,,---,0.00,VWS V14.01,2013-10-17 08:06:00,
2013-10-17 04:09:00,63.8,62.6,29.92,NNW,333,3.0,6.0,96,0.00,,---,0.00,VWS V14.01,2013-10-17 08:09:00,
2013-10-17 04:14:00,63.6,62.4,29.92,NNW,329,3.0,6.0,96,0.00,,---,0.00,VWS V14.01,2013-10-17 08:14:00,
2013-10-17 04:19:00,63.6,62.7,29.92,NNW,333,5.0,6.0,97,0.00,,---,0.00,VWS V14.01,2013-10-17 08:19:00,
2013-10-17 04:24:00,63.4,62.5,29.92,NNW,338,5.0,7.0,97,0.00,,---,0.00,VWS V14.01,2013-10-17 08:24:00,
2013-10-17 04:29:00,63.4,62.5,29.92,NNW,332,4.0,6.0,97,0.00,,---,0.00,VWS V14.01,2013-10-17 08:29:00,
2013-10-17 04:34:00,63.3,62.4,29.92,NNW,333,4.0,6.0,97,0.00,,---,0.00,VWS V14.01,2013-10-17 08:34:00,
2013-10-17 04:39:00,63.3,62.4,29.92,NNW,338,4.0,6.0,97,0.00,,---,0.00,VWS V14.01,2013-10-17 08:39:00,
2013-10-17 04:44:00,63.4,62.5,29.92,NNW,339,4.0,6.0,97,0.00,,---,0.00,VWS V14.01,2013-10-17 08:44:00,
2013-10-17 04:50:00,63.4,62.5,29.92,NNW,338,4.0,6.0,97,0.00,,---,0.00,VWS V14.01,2013-10-17 08:50:00,
2013-10-17 04:55:00,63.5,62.6,29.92,NNW,339,4.0,6.0,97,0.00,,---,0.00,VWS V14.01,2013-10-17 08:55:00,
2013-10-17 05:00:00,63.5,62.3,29.93,NNW,333,5.0,5.0,96,0.00,,---,0.00,VWS V14.01,2013-10-17 09:00:00,
2013-10-17 05:05:00,63.6,62.4,29.93,NNW,333,2.0,5.0,96,0.00,,---,0.00,VWS V14.01,2013-10-17 09:05:00,
2013-10-17 05:10:00,63.5,62.3,29.93,NNW,333,2.0,5.0,96,0.00,,---,0.00,VWS V14.01,2013-10-17 09:10:00,
2013-10-17 05:15:00,63.7,62.5,29.93,NNW,346,3.0,5.0,96,0.00,,---,0.00,VWS V14.01,2013-10-17 09:15:00,
2013-10-17 05:20:00,63.8,62.6,29.93,North,5,5.0,5.0,96,0.00,,---,0.00,VWS V14.01,2013-10-17 09:20:00,
2013-10-17 05:25:00,63.7,62.5,29.93,North,5,4.0,6.0,96,0.00,,---,0.00,VWS V14.01,2013-10-17 09:25:00,
2013-10-17 05:30:00,63.7,62.5,29.93,North,5,3.0,5.0,96,0.00,,---,0.00,VWS V14.01,2013-10-17 09:30:00,
2013-10-17 05:35:00,63.7,62.5,29.93,North,5,2.0,5.0,96,0.00,,---,0.00,VWS V14.01,2013-10-17 09:35:00,
2013-10-17 05:40:00,63.7,62.5,29.94,North,5,3.0,5.0,96,0.00,,---,0.00,VWS V14.01,2013-10-17 09:40:00,
2013-10-17 05:45:00,63.7,62.5,29.93,North,5,0.0,5.0,96,0.00,,---,0.00,VWS V14.01,2013-10-17 09:45:00,
2013-10-17 05:50:00,63.7,62.5,29.93,North,5,3.0,5.0,96,0.00,,---,0.00,VWS V14.01,2013-10-17 09:50:00,
2013-10-17 05:55:00,63.7,62.5,29.93,NNW,339,4.0,5.0,96,0.00,,---,0.00,VWS V14.01,2013-10-17 09:55:00,
2013-10-17 06:00:00,63.8,62.6,29.93,NNW,330,3.0,4.0,96,0.00,,---,0.00,VWS V14.01,2013-10-17 10:00:00,
2013-10-17 06:06:00,63.8,62.6,29.93,NNW,345,4.0,5.0,96,0.00,,---,0.00,VWS V14.01,2013-10-17 10:06:00,
2013-10-17 06:11:00,63.7,62.5,29.93,NNW,333,2.0,5.0,96,0.00,,---,0.00,VWS V14.01,2013-10-17 10:11:00,
2013-10-17 06:16:00,63.7,62.5,29.93,NNW,333,0.0,5.0,96,0.00,,---,0.00,VWS V14.01,2013-10-17 10:16:00,
2013-10-17 06:21:00,63.8,62.3,29.93,NNW,333,0.0,5.0,95,0.00,,---,0.00,VWS V14.01,2013-10-17 10:21:00,
2013-10-17 06:26:00,63.8,62.3,29.94,NNW,334,1.0,5.0,95,0.00,,---,0.00,VWS V14.01,2013-10-17 10:26:00,
2013-10-17 06:31:00,63.9,62.4,29.94,NNW,333,2.0,3.0,95,0.00,,---,0.00,VWS V14.01,2013-10-17 10:31:00,
2013-10-17 06:36:00,64.1,62.6,29.94,NNW,333,1.0,3.0,95,0.00,,---,0.00,VWS V14.01,2013-10-17 10:36:00,
2013-10-17 06:41:00,64.2,62.7,29.94,NNW,333,1.0,3.0,95,0.00,,---,0.00,VWS V14.01,2013-10-17 10:41:00,
2013-10-17 06:46:00,64.4,62.9,29.94,NNW,334,2.0,4.0,95,0.00,,---,0.00,VWS V14.01,2013-10-17 10:46:00,
2013-10-17 06:51:00,64.5,62.7,29.94,NNW,334,2.0,4.0,94,0.00,,---,0.00,VWS V14.01,2013-10-17 10:51:00,
2013-10-17 06:56:00,64.4,62.6,29.95,NNW,334,3.0,4.0,94,0.00,,---,0.00,VWS V14.01,2013-10-17 10:56:00,
2013-10-17 07:01:00,64.5,62.7,29.94,NNW,334,2.0,4.0,94,0.00,,---,0.00,VWS V14.01,2013-10-17 11:01:00,
2013-10-17 07:06:00,64.5,62.7,29.94,NNW,334,3.0,4.0,94,0.00,,---,0.00,VWS V14.01,2013-10-17 11:06:00,
2013-10-17 07:11:00,64.5,62.7,29.95,NNW,334,4.0,4.0,94,0.00,,---,0.00,VWS V14.01,2013-10-17 11:11:00,
2013-10-17 07:16:00,64.5,62.7,29.95,NNW,330,4.0,5.0,94,0.00,,---,0.00,VWS V14.01,2013-10-17 11:16:00,
2013-10-17 07:22:00,64.5,62.7,29.95,NNW,333,3.0,5.0,94,0.00,,---,0.00,VWS V14.01,2013-10-17 11:22:00,
2013-10-17 07:27:00,64.4,62.6,29.94,NNW,327,3.0,5.0,94,0.00,,---,0.00,VWS V14.01,2013-10-17 11:27:00,
2013-10-17 07:32:00,64.2,62.4,29.94,NNW,327,1.0,4.0,94,0.00,,---,0.00,VWS V14.01,2013-10-17 11:32:00,
2013-10-17 07:37:00,64.2,62.4,29.95,NW,325,3.0,4.0,94,0.00,,---,0.00,VWS V14.01,2013-10-17 11:37:00,
2013-10-17 07:42:00,64.1,62.3,29.95,NW,321,4.0,4.0,94,0.00,,---,0.00,VWS V14.01,2013-10-17 11:42:00,
2013-10-17 07:47:00,64.2,62.4,29.95,NNW,336,3.0,5.0,94,0.00,,---,0.00,VWS V14.01,2013-10-17 11:47:00,
2013-10-17 07:52:00,64.3,62.5,29.95,NNW,336,4.0,5.0,94,0.00,,---,0.00,VWS V14.01,2013-10-17 11:52:00,
2013-10-17 07:57:00,64.4,62.6,29.95,NNW,327,3.0,6.0,94,0.00,,---,0.00,VWS V14.01,2013-10-17 11:57:00,
2013-10-17 08:02:00,64.5,62.7,29.95,NNW,327,2.0,4.0,94,0.00,,---,0.00,VWS V14.01,2013-10-17 12:02:00,
2013-10-17 08:07:00,64.4,62.6,29.95,NW,325,4.0,6.0,94,0.00,,---,0.00,VWS V14.01,2013-10-17 12:07:00,
2013-10-17 08:12:00,64.4,62.3,29.95,NW,320,4.0,6.0,93,0.00,,---,0.00,VWS V14.01,2013-10-17 12:12:00,
2013-10-17 08:17:00,64.4,62.3,29.95,NW,322,3.0,6.0,93,0.00,,---,0.00,VWS V14.01,2013-10-17 12:17:00,
2013-10-17 08:22:00,64.5,62.4,29.95,NW,325,6.0,6.0,93,0.00,,---,0.00,VWS V14.01,2013-10-17 12:22:00,
2013-10-17 08:27:00,64.6,62.8,29.96,NW,326,5.0,5.0,94,0.00,,---,0.00,VWS V14.01,2013-10-17 12:27:00,
2013-10-17 08:32:00,64.7,62.6,29.96,NW,321,6.0,7.0,93,0.00,,---,0.00,VWS V14.01,2013-10-17 12:32:00,
2013-10-17 08:37:00,64.8,62.7,29.96,NW,323,3.0,7.0,93,0.00,,---,0.00,VWS V14.01,2013-10-17 12:37:00,
2013-10-17 08:43:00,64.7,62.0,29.96,NW,319,5.0,7.0,91,0.00,,---,0.00,VWS V14.01,2013-10-17 12:43:00,
2013-10-17 08:48:00,64.9,62.5,29.96,NW,320,5.0,7.0,92,0.00,,---,0.00,VWS V14.01,2013-10-17 12:48:00,
2013-10-17 08:53:00,65.1,62.7,29.96,NW,322,4.0,7.0,92,0.00,,---,0.00,VWS V14.01,2013-10-17 12:53:00,
2013-10-17 08:58:00,65.2,62.5,29.97,NW,311,3.0,4.0,91,0.00,,---,0.00,VWS V14.01,2013-10-17 12:58:00,
2013-10-17 09:03:00,65.4,63.0,29.97,NW,311,2.0,4.0,92,0.00,,---,0.00,VWS V14.01,2013-10-17 13:03:00,
2013-10-17 09:08:00,65.5,62.8,29.97,WNW,299,5.0,6.0,91,0.00,,---,0.00,VWS V14.01,2013-10-17 13:08:00,
2013-10-17 09:13:00,65.5,62.8,29.98,WNW,299,4.0,6.0,91,0.00,,---,0.00,VWS V14.01,2013-10-17 13:13:00,
2013-10-17 09:18:00,65.7,63.0,29.97,WNW,299,3.0,6.0,91,0.00,,---,0.00,VWS V14.01,2013-10-17 13:18:00,
2013-10-17 09:23:00,65.8,63.1,29.98,WNW,299,3.0,6.0,91,0.00,,---,0.00,VWS V14.01,2013-10-17 13:23:00,
2013-10-17 09:28:00,65.9,62.9,29.97,WNW,299,2.0,3.0,90,0.00,,---,0.00,VWS V14.01,2013-10-17 13:28:00,
2013-10-17 09:33:00,66.2,63.2,29.97,WNW,299,1.0,4.0,90,0.00,,---,0.00,VWS V14.01,2013-10-17 13:33:00,
2013-10-17 09:38:00,66.4,63.7,29.97,WNW,299,2.0,4.0,91,0.00,,---,0.00,VWS V14.01,2013-10-17 13:38:00,
2013-10-17 09:43:00,66.6,63.6,29.97,WNW,299,3.0,4.0,90,0.00,,---,0.00,VWS V14.01,2013-10-17 13:43:00,
2013-10-17 09:48:00,66.8,63.5,29.97,WNW,297,4.0,5.0,89,0.00,,---,0.00,VWS V14.01,2013-10-17 13:48:00,
2013-10-17 09:53:00,67.0,64.0,29.97,WNW,296,4.0,5.0,90,0.00,,---,0.00,VWS V14.01,2013-10-17 13:53:00,
2013-10-17 09:59:00,67.2,63.8,29.97,WNW,293,3.0,4.0,89,0.00,,---,0.00,VWS V14.01,2013-10-17 13:59:00,
2013-10-17 10:04:00,67.4,64.1,29.97,WNW,290,4.0,5.0,89,0.00,,---,0.00,VWS V14.01,2013-10-17 14:04:00,
2013-10-17 10:09:00,67.5,63.8,29.97,WNW,292,2.0,5.0,88,0.00,,---,0.00,VWS V14.01,2013-10-17 14:09:00,
2013-10-17 10:14:00,67.8,63.8,29.97,West,273,3.0,6.0,87,0.00,,---,0.00,VWS V14.01,2013-10-17 14:14:00,
2013-10-17 10:19:00,68.1,64.1,29.97,West,280,4.0,7.0,87,0.00,,---,0.00,VWS V14.01,2013-10-17 14:19:00,
2013-10-17 10:24:00,68.3,64.3,29.97,West,280,5.0,7.0,87,0.00,,---,0.00,VWS V14.01,2013-10-17 14:24:00,
2013-10-17 10:29:00,68.5,64.5,29.97,WNW,286,2.0,4.0,87,0.00,,---,0.00,VWS V14.01,2013-10-17 14:29:00,
2013-10-17 10:34:00,68.8,64.8,29.97,WNW,285,3.0,5.0,87,0.00,,---,0.00,VWS V14.01,2013-10-17 14:34:00,
2013-10-17 10:39:00,69.0,64.6,29.97,WNW,285,4.0,5.0,86,0.00,,---,0.00,VWS V14.01,2013-10-17 14:39:00,
2013-10-17 10:44:00,69.2,64.8,29.97,WNW,285,4.0,5.0,86,0.00,,---,0.00,VWS V14.01,2013-10-17 14:44:00,
2013-10-17 10:49:00,69.5,65.1,29.97,WNW,285,3.0,5.0,86,0.00,,---,0.00,VWS V14.01,2013-10-17 14:49:00,
2013-10-17 10:54:00,69.6,65.2,29.97,WNW,285,3.0,5.0,86,0.00,,---,0.00,VWS V14.01,2013-10-17 14:54:00,
2013-10-17 10:59:00,69.9,65.5,29.97,WNW,285,4.0,4.0,86,0.00,,---,0.00,VWS V14.01,2013-10-17 14:59:00,
2013-10-17 11:04:00,70.1,65.4,29.97,West,269,3.0,6.0,85,0.00,,---,0.00,VWS V14.01,2013-10-17 15:04:00,
2013-10-17 11:10:00,70.3,65.6,29.97,West,273,1.0,6.0,85,0.00,,---,0.00,VWS V14.01,2013-10-17 15:10:00,
2013-10-17 11:15:00,70.8,65.7,29.97,West,273,4.0,6.0,84,0.00,,---,0.00,VWS V14.01,2013-10-17 15:15:00,
2013-10-17 11:20:00,71.1,65.7,29.96,West,273,1.0,6.0,83,0.00,,---,0.00,VWS V14.01,2013-10-17 15:20:00,
2013-10-17 11:25:00,71.5,65.7,29.96,SSW,208,5.0,6.0,82,0.00,,---,0.00,VWS V14.01,2013-10-17 15:25:00,
2013-10-17 11:30:00,72.1,65.9,29.96,SW,224,3.0,4.0,81,0.00,,---,0.00,VWS V14.01,2013-10-17 15:30:00,
2013-10-17 11:35:00,72.4,66.9,29.96,SSW,199,7.0,9.0,83,0.00,,---,0.00,VWS V14.01,2013-10-17 15:35:00,
2013-10-17 11:40:00,73.1,67.3,29.96,South,190,2.0,9.0,82,0.00,,---,0.00,VWS V14.01,2013-10-17 15:40:00,
2013-10-17 11:45:00,73.5,67.0,29.96,SSW,198,6.0,9.0,80,0.00,,---,0.00,VWS V14.01,2013-10-17 15:45:00,
2013-10-17 11:50:00,73.9,67.3,29.96,SSW,198,7.0,9.0,80,0.00,,---,0.00,VWS V14.01,2013-10-17 15:50:00,
2013-10-17 11:55:00,74.2,67.3,29.96,South,180,5.0,9.0,79,0.00,,---,0.00,VWS V14.01,2013-10-17 15:55:00,
2013-10-17 12:00:00,74.3,67.4,29.96,South,190,5.0,9.0,79,0.00,,---,0.00,VWS V14.01,2013-10-17 16:00:00,
2013-10-17 12:05:00,74.4,67.5,29.96,South,190,4.0,9.0,79,0.00,,---,0.00,VWS V14.01,2013-10-17 16:05:00,
2013-10-17 12:10:00,74.5,67.6,29.95,SSW,194,5.0,10.0,79,0.00,,---,0.00,VWS V14.01,2013-10-17 16:10:00,
2013-10-17 12:15:00,74.7,67.8,29.95,South,186,7.0,11.0,79,0.00,,---,0.00,VWS V14.01,2013-10-17 16:15:00,
2013-10-17 12:21:00,74.7,67.4,29.95,SSW,192,6.0,11.0,78,0.00,,---,0.00,VWS V14.01,2013-10-17 16:21:00,
2013-10-17 12:26:00,74.9,67.9,29.95,South,180,9.0,11.0,79,0.00,,---,0.00,VWS V14.01,2013-10-17 16:26:00,
2013-10-17 12:31:00,75.1,68.2,29.95,SSW,196,9.0,10.0,79,0.00,,---,0.00,VWS V14.01,2013-10-17 16:31:00,
2013-10-17 12:36:00,75.3,68.0,29.95,South,190,9.0,12.0,78,0.00,,---,0.00,VWS V14.01,2013-10-17 16:36:00,
2013-10-17 12:41:00,75.5,67.8,29.95,SSW,192,9.0,12.0,77,0.00,,---,0.00,VWS V14.01,2013-10-17 16:41:00,
2013-10-17 12:46:00,75.3,68.0,29.95,SSW,198,7.0,14.0,78,0.00,,---,0.00,VWS V14.01,2013-10-17 16:46:00,
2013-10-17 12:51:00,75.3,68.0,29.94,SSW,202,11.0,14.0,78,0.00,,---,0.00,VWS V14.01,2013-10-17 16:51:00,
2013-10-17 12:56:00,75.4,68.1,29.94,SSW,194,13.0,15.0,78,0.00,,---,0.00,VWS V14.01,2013-10-17 16:56:00,
2013-10-17 13:01:00,75.4,68.1,29.94,SSW,203,9.0,15.0,78,0.00,,---,0.00,VWS V14.01,2013-10-17 17:01:00,
2013-10-17 13:06:00,75.5,68.2,29.93,SSW,194,13.0,16.0,78,0.00,,---,0.00,VWS V14.01,2013-10-17 17:06:00,
2013-10-17 13:11:00,75.4,68.1,29.93,South,178,9.0,16.0,78,0.00,,---,0.00,VWS V14.01,2013-10-17 17:11:00,
2013-10-17 13:16:00,75.4,68.1,29.93,SSW,197,13.0,16.0,78,0.00,,---,0.00,VWS V14.01,2013-10-17 17:16:00,
2013-10-17 13:21:00,75.5,68.2,29.93,SSW,196,12.0,16.0,78,0.00,,---,0.00,VWS V14.01,2013-10-17 17:21:00,
2013-10-17 13:26:00,75.5,68.2,29.93,SSW,196,11.0,16.0,78,0.00,,---,0.00,VWS V14.01,2013-10-17 17:26:00,
2013-10-17 13:32:00,75.5,68.2,29.92,South,179,14.0,17.0,78,0.00,,---,0.00,VWS V14.01,2013-10-17 17:32:00,
2013-10-17 13:37:00,75.6,68.3,29.92,South,180,14.0,17.0,78,0.00,,---,0.00,VWS V14.01,2013-10-17 17:37:00,
2013-10-17 13:42:00,75.7,68.4,29.91,SSW,193,14.0,17.0,78,0.00,,---,0.00,VWS V14.01,2013-10-17 17:42:00,
2013-10-17 13:47:00,75.7,68.4,29.91,SSW,196,7.0,17.0,78,0.00,,---,0.00,VWS V14.01,2013-10-17 17:47:00,
2013-10-17 13:52:00,75.8,68.1,29.91,SSW,197,10.0,17.0,77,0.00,,---,0.00,VWS V14.01,2013-10-17 17:52:00,
2013-10-17 13:57:00,75.8,67.7,29.91,SSW,209,12.0,17.0,76,0.00,,---,0.00,VWS V14.01,2013-10-17 17:57:00,
2013-10-17 14:02:00,76.1,68.4,29.91,South,182,10.0,15.0,77,0.00,,---,0.00,VWS V14.01,2013-10-17 18:02:00,
2013-10-17 14:07:00,76.4,68.3,29.91,SW,215,6.0,17.0,76,0.00,,---,0.00,VWS V14.01,2013-10-17 18:07:00,
2013-10-17 14:12:00,76.5,68.4,29.91,SSW,196,12.0,17.0,76,0.00,,---,0.00,VWS V14.01,2013-10-17 18:12:00,
2013-10-17 14:17:00,76.5,68.0,29.90,SSW,202,14.0,17.0,75,0.00,,---,0.00,VWS V14.01,2013-10-17 18:17:00,
2013-10-17 14:22:00,76.5,68.8,29.90,SSW,202,11.0,17.0,77,0.00,,---,0.00,VWS V14.01,2013-10-17 18:22:00,
2013-10-17 14:27:00,76.5,68.4,29.90,SSW,202,13.0,14.0,76,0.00,,---,0.00,VWS V14.01,2013-10-17 18:27:00,
2013-10-17 14:32:00,76.2,68.5,29.90,SSW,198,14.0,16.0,77,0.00,,---,0.00,VWS V14.01,2013-10-17 18:32:00,
2013-10-17 14:37:00,76.2,68.5,29.90,SSW,209,12.0,17.0,77,0.00,,---,0.00,VWS V14.01,2013-10-17 18:37:00,
2013-10-17 14:42:00,76.4,69.0,29.90,SSW,205,11.0,17.0,78,0.00,,---,0.00,VWS V14.01,2013-10-17 18:42:00,
2013-10-17 14:48:00,76.3,68.6,29.90,SSW,210,7.0,17.0,77,0.00,,---,0.00,VWS V14.01,2013-10-17 18:48:00,
2013-10-17 14:53:00,76.2,68.5,29.90,SSW,209,13.0,17.0,77,0.00,,---,0.00,VWS V14.01,2013-10-17 18:53:00,
2013-10-17 14:58:00,76.3,68.2,29.90,SSW,196,6.0,15.0,76,0.00,,---,0.00,VWS V14.01,2013-10-17 18:58:00,
2013-10-17 15:03:00,76.3,67.8,29.90,SSW,211,13.0,15.0,75,0.00,,---,0.00,VWS V14.01,2013-10-17 19:03:00,
2013-10-17 15:08:00,76.2,67.7,29.89,SSW,192,16.0,16.0,75,0.00,,---,0.00,VWS V14.01,2013-10-17 19:08:00,
2013-10-17 15:13:00,76.2,67.7,29.89,SSW,206,14.0,17.0,75,0.00,,---,0.00,VWS V14.01,2013-10-17 19:13:00,
2013-10-17 15:18:00,76.1,68.0,29.89,SSW,211,13.0,18.0,76,0.00,,---,0.00,VWS V14.01,2013-10-17 19:18:00,
2013-10-17 15:23:00,75.8,67.7,29.89,SW,228,11.0,18.0,76,0.00,,---,0.00,VWS V14.01,2013-10-17 19:23:00,
2013-10-17 15:28:00,75.7,68.0,29.89,SSW,201,10.0,13.0,77,0.00,,---,0.00,VWS V14.01,2013-10-17 19:28:00,
2013-10-17 15:31:00,75.5,68.2,29.89,SW,215,5.0,17.0,78,0.00,,---,0.00,VWS V14.01,2013-10-17 19:31:00,
2013-10-17 15:37:00,75.7,68.4,29.89,SSW,208,16.0,17.0,78,0.00,,---,0.00,VWS V14.01,2013-10-17 19:37:00,
2013-10-17 15:42:00,75.8,68.1,29.89,SSW,213,7.0,18.0,77,0.00,,---,0.00,VWS V14.01,2013-10-17 19:42:00,
2013-10-17 15:47:00,75.9,68.2,29.89,SSW,212,11.0,18.0,77,0.00,,---,0.00,VWS V14.01,2013-10-17 19:47:00,
2013-10-17 15:52:00,75.7,68.4,29.89,SSW,198,9.0,18.0,78,0.00,,---,0.00,VWS V14.01,2013-10-17 19:52:00,
2013-10-17 15:57:00,75.6,68.3,29.89,SSW,196,10.0,18.0,78,0.00,,---,0.00,VWS V14.01,2013-10-17 19:57:00,
2013-10-17 16:02:00,75.8,68.8,29.89,SSW,211,9.0,19.0,79,0.00,,---,0.00,VWS V14.01,2013-10-17 20:02:00,
2013-10-17 16:07:00,75.9,68.9,29.89,SSW,198,11.0,19.0,79,0.00,,---,0.00,VWS V14.01,2013-10-17 20:07:00,
2013-10-17 16:12:00,75.6,69.0,29.89,SSW,198,11.0,19.0,80,0.00,,---,0.00,VWS V14.01,2013-10-17 20:12:00,
2013-10-17 16:17:00,75.3,68.7,29.88,SSW,205,10.0,19.0,80,0.00,,---,0.00,VWS V14.01,2013-10-17 20:17:00,
2013-10-17 16:22:00,75.2,68.6,29.89,SSW,206,9.0,19.0,80,0.00,,---,0.00,VWS V14.01,2013-10-17 20:22:00,
2013-10-17 16:27:00,75.1,68.9,29.88,SSW,203,14.0,18.0,81,0.00,,---,0.00,VWS V14.01,2013-10-17 20:27:00,
2013-10-17 16:32:00,75.2,69.0,29.88,SSW,200,10.0,18.0,81,0.00,,---,0.00,VWS V14.01,2013-10-17 20:32:00,
2013-10-17 16:37:00,75.2,69.0,29.88,SSW,194,13.0,18.0,81,0.00,,---,0.00,VWS V14.01,2013-10-17 20:37:00,
2013-10-17 16:42:00,75.2,69.0,29.88,SSW,203,14.0,18.0,81,0.00,,---,0.00,VWS V14.01,2013-10-17 20:42:00,
2013-10-17 16:48:00,75.1,69.2,29.88,SSW,194,14.0,18.0,82,0.00,,---,0.00,VWS V14.01,2013-10-17 20:48:00,
2013-10-17 16:53:00,74.9,68.7,29.88,SW,227,14.0,22.0,81,0.00,,---,0.00,VWS V14.01,2013-10-17 20:53:00,
2013-10-17 16:58:00,74.6,68.8,29.88,South,178,9.0,14.0,82,0.00,,---,0.00,VWS V14.01,2013-10-17 20:58:00,
2013-10-17 17:03:00,74.4,68.9,29.88,SW,217,11.0,20.0,83,0.00,,---,0.00,VWS V14.01,2013-10-17 21:03:00,
2013-10-17 17:08:00,74.4,68.6,29.88,SW,222,16.0,21.0,82,0.00,,---,0.00,VWS V14.01,2013-10-17 21:08:00,
2013-10-17 17:13:00,74.3,68.8,29.88,SSW,203,19.0,21.0,83,0.00,,---,0.00,VWS V14.01,2013-10-17 21:13:00,
2013-10-17 17:18:00,74.2,68.7,29.87,SSW,202,12.0,23.0,83,0.00,,---,0.00,VWS V14.01,2013-10-17 21:18:00,
2013-10-17 17:23:00,74.1,68.6,29.87,SSW,206,12.0,23.0,83,0.00,,---,0.00,VWS V14.01,2013-10-17 21:23:00,
2013-10-17 17:28:00,74.0,68.9,29.87,South,186,16.0,20.0,84,0.00,,---,0.00,VWS V14.01,2013-10-17 21:28:00,
2013-10-17 17:33:00,73.8,68.7,29.87,SSW,211,14.0,23.0,84,0.00,,---,0.00,VWS V14.01,2013-10-17 21:33:00,
2013-10-17 17:38:00,73.7,68.6,29.88,SW,227,12.0,23.0,84,0.00,,---,0.00,VWS V14.01,2013-10-17 21:38:00,
2013-10-17 17:43:00,73.5,68.7,29.87,SW,223,11.0,23.0,85,0.00,,---,0.00,VWS V14.01,2013-10-17 21:43:00,
2013-10-17 17:48:00,73.4,68.6,29.88,SW,231,11.0,23.0,85,0.00,,---,0.00,VWS V14.01,2013-10-17 21:48:00,
2013-10-17 17:53:00,73.3,68.9,29.88,SSW,208,14.0,23.0,86,0.00,,---,0.00,VWS V14.01,2013-10-17 21:53:00,
2013-10-17 17:58:00,73.0,68.6,29.88,WSW,239,10.0,19.0,86,0.00,,---,0.00,VWS V14.01,2013-10-17 21:58:00,
2013-10-17 18:04:00,72.8,68.4,29.88,SW,227,14.0,19.0,86,0.00,,---,0.00,VWS V14.01,2013-10-17 22:04:00,
2013-10-17 18:09:00,72.7,68.3,29.88,SW,215,18.0,20.0,86,0.00,,---,0.00,VWS V14.01,2013-10-17 22:09:00,
2013-10-17 18:14:00,72.6,68.5,29.88,SW,231,12.0,22.0,87,0.00,,---,0.00,VWS V14.01,2013-10-17 22:14:00,
2013-10-17 18:19:00,72.5,68.4,29.88,SW,227,18.0,22.0,87,0.00,,---,0.00,VWS V14.01,2013-10-17 22:19:00,
2013-10-17 18:24:00,72.3,68.2,29.88,SSW,209,14.0,22.0,87,0.00,,---,0.00,VWS V14.01,2013-10-17 22:24:00,
2013-10-17 18:29:00,72.2,68.4,29.88,SW,219,10.0,20.0,88,0.00,,---,0.00,VWS V14.01,2013-10-17 22:29:00,
2013-10-17 18:34:00,72.1,68.3,29.88,WSW,242,16.0,20.0,88,0.00,,---,0.00,VWS V14.01,2013-10-17 22:34:00,
2013-10-17 18:39:00,72.0,68.6,29.88,SW,217,13.0,20.0,89,0.00,,---,0.00,VWS V14.01,2013-10-17 22:39:00,
2013-10-17 18:44:00,72.0,68.6,29.88,SW,233,10.0,20.0,89,0.00,,---,0.00,VWS V14.01,2013-10-17 22:44:00,
2013-10-17 18:49:00,72.0,68.6,29.88,SW,224,11.0,20.0,89,0.00,,---,0.00,VWS V14.01,2013-10-17 22:49:00,
2013-10-17 18:54:00,71.9,68.5,29.88,SW,225,12.0,20.0,89,0.00,,---,0.00,VWS V14.01,2013-10-17 22:54:00,
2013-10-17 18:59:00,71.9,68.5,29.88,SW,221,11.0,17.0,89,0.00,,---,0.00,VWS V14.01,2013-10-17 22:59:00,
2013-10-17 19:04:00,71.9,68.5,29.89,WSW,240,7.0,17.0,89,0.00,,---,0.00,VWS V14.01,2013-10-17 23:04:00,
2013-10-17 19:09:00,71.9,68.5,29.89,SSW,194,11.0,17.0,89,0.00,,---,0.00,VWS V14.01,2013-10-17 23:09:00,
2013-10-17 19:14:00,71.9,68.5,29.89,SW,229,8.0,17.0,89,0.00,,---,0.00,VWS V14.01,2013-10-17 23:14:00,
2013-10-17 19:20:00,71.8,68.4,29.89,SW,217,6.0,17.0,89,0.00,,---,0.00,VWS V14.01,2013-10-17 23:20:00,
2013-10-17 19:25:00,71.8,68.1,29.89,SW,228,9.0,17.0,88,0.00,,---,0.00,VWS V14.01,2013-10-17 23:25:00,
2013-10-17 19:30:00,71.8,68.1,29.89,WSW,240,7.0,14.0,88,0.00,,---,0.00,VWS V14.01,2013-10-17 23:30:00,
2013-10-17 19:35:00,71.8,68.1,29.89,SW,219,6.0,14.0,88,0.00,,---,0.00,VWS V14.01,2013-10-17 23:35:00,
2013-10-17 19:40:00,71.8,68.1,29.89,SSW,209,13.0,14.0,88,0.00,,---,0.00,VWS V14.01,2013-10-17 23:40:00,
2013-10-17 19:45:00,71.8,68.1,29.89,WSW,244,8.0,14.0,88,0.00,,---,0.00,VWS V14.01,2013-10-17 23:45:00,
2013-10-17 19:50:00,71.8,68.4,29.89,SW,223,8.0,16.0,89,0.00,,---,0.00,VWS V14.01,2013-10-17 23:50:00,
2013-10-17 19:55:00,71.8,68.4,29.89,SW,232,10.0,16.0,89,0.00,,---,0.00,VWS V14.01,2013-10-17 23:55:00,
2013-10-17 20:00:00,71.7,68.3,29.90,SW,219,9.0,13.0,89,0.00,,---,0.00,VWS V14.01,2013-10-18 00:00:00,
2013-10-17 20:05:00,71.7,68.3,29.90,SW,215,7.0,13.0,89,0.00,,---,0.00,VWS V14.01,2013-10-18 00:05:00,
2013-10-17 20:10:00,71.6,68.2,29.90,SW,217,6.0,13.0,89,0.00,,---,0.00,VWS V14.01,2013-10-18 00:10:00,
2013-10-17 20:15:00,71.6,68.5,29.90,SW,219,11.0,15.0,90,0.00,,---,0.00,VWS V14.01,2013-10-18 00:15:00,
2013-10-17 20:20:00,71.6,68.5,29.90,SSW,212,10.0,15.0,90,0.00,,---,0.00,VWS V14.01,2013-10-18 00:20:00,
2013-10-17 20:25:00,71.5,68.4,29.90,SW,227,5.0,16.0,90,0.00,,---,0.00,VWS V14.01,2013-10-18 00:25:00,
2013-10-17 20:30:00,71.5,68.4,29.90,SW,236,7.0,13.0,90,0.00,,---,0.00,VWS V14.01,2013-10-18 00:30:00,
2013-10-17 20:35:00,71.5,68.4,29.90,SW,230,10.0,14.0,90,0.00,,---,0.00,VWS V14.01,2013-10-18 00:35:00,
2013-10-17 20:41:00,71.5,68.7,29.90,SW,233,12.0,14.0,91,0.00,,---,0.00,VWS V14.01,2013-10-18 00:41:00,
2013-10-17 20:46:00,71.5,68.7,29.91,WSW,244,6.0,14.0,91,0.00,,---,0.00,VWS V14.01,2013-10-18 00:46:00,
2013-10-17 20:51:00,71.5,69.1,29.90,SSW,209,9.0,14.0,92,0.00,,---,0.00,VWS V14.01,2013-10-18 00:51:00,
2013-10-17 20:56:00,71.6,69.2,29.91,SW,234,11.0,14.0,92,0.00,,---,0.00,VWS V14.01,2013-10-18 00:56:00,
2013-10-17 21:01:00,71.5,69.1,29.91,WSW,239,5.0,13.0,92,0.00,,---,0.00,VWS V14.01,2013-10-18 01:01:00,
2013-10-17 21:06:00,71.5,69.1,29.91,SW,230,10.0,16.0,92,0.00,,---,0.00,VWS V14.01,2013-10-18 01:06:00,
2013-10-17 21:11:00,71.5,69.1,29.91,SW,235,9.0,16.0,92,0.00,,---,0.00,VWS V14.01,2013-10-18 01:11:00,
2013-10-17 21:16:00,71.5,69.4,29.91,SW,221,11.0,16.0,93,0.00,,---,0.00,VWS V14.01,2013-10-18 01:16:00,
2013-10-17 21:21:00,71.5,69.4,29.91,WSW,242,11.0,16.0,93,0.00,,---,0.00,VWS V14.01,2013-10-18 01:21:00,
2013-10-17 21:26:00,71.5,69.4,29.91,SW,234,9.0,16.0,93,0.00,,---,0.00,VWS V14.01,2013-10-18 01:26:00,
2013-10-17 21:31:00,71.5,69.4,29.91,WSW,241,6.0,12.0,93,0.00,,---,0.00,VWS V14.01,2013-10-18 01:31:00,
2013-10-17 21:36:00,71.5,69.4,29.91,SW,214,6.0,13.0,93,0.00,,---,0.00,VWS V14.01,2013-10-18 01:36:00,
2013-10-17 21:41:00,71.5,69.4,29.91,SW,223,6.0,13.0,93,0.00,,---,0.00,VWS V14.01,2013-10-18 01:41:00,
2013-10-17 21:46:00,71.5,69.4,29.90,WSW,250,5.0,13.0,93,0.00,,---,0.00,VWS V14.01,2013-10-18 01:46:00,
2013-10-17 21:51:00,71.5,69.4,29.91,SSW,209,6.0,15.0,93,0.00,,---,0.00,VWS V14.01,2013-10-18 01:51:00,
2013-10-17 21:57:00,71.5,69.4,29.91,SW,227,3.0,15.0,93,0.00,,---,0.00,VWS V14.01,2013-10-18 01:57:00,
2013-10-17 22:02:00,71.5,69.4,29.91,SW,223,12.0,13.0,93,0.00,,---,0.00,VWS V14.01,2013-10-18 02:02:00,
2013-10-17 22:07:00,71.5,69.4,29.91,WSW,246,6.0,13.0,93,0.00,,---,0.00,VWS V14.01,2013-10-18 02:07:00,
2013-10-17 22:12:00,71.5,69.4,29.91,SW,228,10.0,14.0,93,0.00,,---,0.00,VWS V14.01,2013-10-18 02:12:00,
2013-10-17 22:17:00,71.6,69.5,29.91,WSW,238,9.0,14.0,93,0.00,,---,0.00,VWS V14.01,2013-10-18 02:17:00,
2013-10-17 22:22:00,71.6,69.5,29.90,WSW,241,9.0,14.0,93,0.00,,---,0.00,VWS V14.01,2013-10-18 02:22:00,
2013-10-17 22:27:00,71.6,69.5,29.90,SSW,210,10.0,15.0,93,0.00,,---,0.00,VWS V14.01,2013-10-18 02:27:00,
2013-10-17 22:32:00,71.6,69.5,29.90,SW,226,11.0,14.0,93,0.00,,---,0.00,VWS V14.01,2013-10-18 02:32:00,
2013-10-17 22:37:00,71.7,69.6,29.90,SW,223,13.0,15.0,93,0.00,,---,0.00,VWS V14.01,2013-10-18 02:37:00,
2013-10-17 22:42:00,71.7,69.6,29.90,SW,232,6.0,18.0,93,0.00,,---,0.00,VWS V14.01,2013-10-18 02:42:00,
2013-10-17 22:47:00,71.7,69.6,29.90,SW,229,9.0,18.0,93,0.00,,---,0.00,VWS V14.01,2013-10-18 02:47:00,
2013-10-17 22:52:00,71.7,69.6,29.90,SW,217,7.0,18.0,93,0.00,,---,0.00,VWS V14.01,2013-10-18 02:52:00,
2013-10-17 22:57:00,71.7,69.6,29.90,SW,226,12.0,12.0,93,0.00,,---,0.00,VWS V14.01,2013-10-18 02:57:00,
2013-10-17 23:02:00,71.7,69.6,29.90,SW,225,11.0,15.0,93,0.00,,---,0.00,VWS V14.01,2013-10-18 03:02:00,
2013-10-17 23:07:00,71.7,69.6,29.90,SW,221,11.0,15.0,93,0.00,,---,0.00,VWS V14.01,2013-10-18 03:07:00,
2013-10-17 23:13:00,71.7,69.6,29.90,WSW,238,5.0,15.0,93,0.00,,---,0.00,VWS V14.01,2013-10-18 03:13:00,
2013-10-17 23:18:00,71.7,69.6,29.90,SW,226,7.0,15.0,93,0.00,,---,0.00,VWS V14.01,2013-10-18 03:18:00,
2013-10-17 23:23:00,71.7,69.6,29.90,WSW,252,6.0,15.0,93,0.00,,---,0.00,VWS V14.01,2013-10-18 03:23:00,
2013-10-17 23:28:00,71.7,69.6,29.90,WSW,246,5.0,10.0,93,0.00,,---,0.00,VWS V14.01,2013-10-18 03:28:00,
2013-10-17 23:33:00,71.7,69.9,29.90,WSW,248,4.0,10.0,94,0.00,,---,0.00,VWS V14.01,2013-10-18 03:33:00,
2013-10-17 23:38:00,71.7,69.9,29.90,WSW,250,6.0,10.0,94,0.00,,---,0.00,VWS V14.01,2013-10-18 03:38:00,
2013-10-17 23:43:00,71.7,69.9,29.90,WSW,238,5.0,10.0,94,0.00,,---,0.00,VWS V14.01,2013-10-18 03:43:00,
2013-10-17 23:48:00,71.6,69.8,29.90,West,266,5.0,10.0,94,0.00,,---,0.00,VWS V14.01,2013-10-18 03:48:00,
2013-10-17 23:53:00,71.5,69.7,29.90,SW,232,5.0,10.0,94,0.00,,---,0.00,VWS V14.01,2013-10-18 03:53:00,
2013-10-17 23:58:00,71.4,69.3,29.90,SW,224,5.0,7.0,93,0.00,,---,0.00,VWS V14.01,2013-10-18 03:58:00,